This is the latest recevied weather packets stored in our database for station/object K5OLV. If no packets are shown the sender has not sent any weather packets the latest 10 day(s).
| Time | Temp. | Humidity | Pressure | Rain* | Wind** | Luminosity | Snow |
|---|---|---|---|---|---|---|---|
| 1777932790 | 22.22° C | 51% | 1011.3 hPa | 0 mm | - | 158 W/m² | - |
| 1777932487 | 22.22° C | 51% | 1011.2 hPa | 0 mm | - | 159 W/m² | - |
| 1777932184 | 22.22° C | 50% | 1010.9 hPa | 0 mm | - | 176 W/m² | - |
| 1777931882 | 22.78° C | 49% | 1011.1 hPa | 0 mm | - | 172 W/m² | - |
| 1777931578 | 23.33° C | 51% | 1011.2 hPa | 0 mm | - | 299 W/m² | - |
| 1777931274 | 22.78° C | 48% | 1011.1 hPa | 0 mm | - | 286 W/m² | - |
| 1777930970 | 22.78° C | 48% | 1011.2 hPa | 0 mm | - | 290 W/m² | - |
| 1777930667 | 23.33° C | 54% | 1010.9 hPa | 0 mm | - | 321 W/m² | - |
| 1777930363 | 23.89° C | 50% | 1011.2 hPa | 0 mm | - | 344 W/m² | - |
| 1777930061 | 23.33° C | 54% | 1011 hPa | 0 mm | - | 364 W/m² | - |
| 1777929757 | 23.33° C | 49% | 1011.1 hPa | 0 mm | - | 458 W/m² | - |
| 1777929455 | 23.33° C | 54% | 1011 hPa | 0 mm | - | 347 W/m² | - |
| 1777929151 | 23.89° C | 50% | 1011.2 hPa | 0 mm | - | 286 W/m² | - |
| 1777928849 | 22.78° C | 52% | 1011.1 hPa | 0 mm | - | 421 W/m² | - |
| 1777928545 | 23.33° C | 50% | 1011.1 hPa | 0 mm | - | 400 W/m² | - |
| 1777928242 | 23.33° C | 50% | 1011.2 hPa | 0 mm | - | 394 W/m² | - |
| 1777927940 | 23.89° C | 47% | 1011.4 hPa | 0 mm | - | 454 W/m² | - |
| 1777927638 | 23.33° C | 47% | 1011.4 hPa | 0 mm | - | 501 W/m² | - |
| 1777927336 | 23.33° C | 48% | 1011.5 hPa | 0 mm | - | 417 W/m² | - |
| 1777927035 | 23.89° C | 47% | 1011.2 hPa | 0 mm | - | 554 W/m² | - |
| 1777926732 | 23.89° C | 45% | 1011.3 hPa | 0 mm | - | 530 W/m² | - |
| 1777926432 | 24.44° C | 43% | 1011.5 hPa | 0 mm | - | 555 W/m² | - |
| 1777926130 | 24.44° C | 49% | 1011.5 hPa | 0 mm | - | 596 W/m² | - |
| 1777925827 | 23.89° C | 51% | 1011.6 hPa | 0 mm | - | 559 W/m² | - |
| 1777925524 | 24.44° C | 51% | 1011.5 hPa | 0 mm | - | 556 W/m² | - |
* Rain latest hour (hover to see other rain measurements)
** Current wind speed in m/s (hover to see current wind gust speed)